RH
27 26 25 27 27 24 31 37 48 51 63 50 45 55 73 77 75 73 74 99 93 88 84 82 79 89 89 94 91 63 65 69
32 30 31 29 32 29 33 38 44 59 63 57 42 44 61 74 81 75 73 84 89 95 81 68 58 59 66 73 70 62 66 76
30 34 33 34 36 36 35 37 44 50 66 62 59 47 59 71 84 80 83 82 94 95 89 78 54 53 52 53 63 66 82 85
31 36 41 39 39 42 39 46 45 46 60 69 66 60 71 70 82 87 78 85 87 87 88 82 79 59 53 53 61 68 84 91
36 35 44 47 44 46 44 47 46 47 53 74 67 59 64 60 67 81 84 88 84 91 90 80 78 70 63 63 63 64 80 88
41 39 42 52 54 50 51 51 48 54 59 60 81 66 74 60 76 77 87 87 78 90 87 88 80 76 74 79 73 75 77 86
46 44 44 52 58 58 56 55 51 57 58 55 76 77 68 80 63 75 78 89 84 82 87 89 80 83 81 91 89 89 93 88
51 49 48 55 60 64 60 59 54 60 61 61 68 90 70 79 73 72 76 88 89 82 84 74 78 84 83 90 97 98 99 96
58 57 53 58 68 70 67 60 58 58 63 71 69 69 94 85 75 70 72 83 89 86 78 76 76 79 79 86 95 98 98 98
64 64 62 62 72 76 75 65 60 62 66 69 75 78 86 88 85 87 76 77 85 87 89 75 67 68 84 87 91 93 98 99
76 71 70 68 79 84 81 72 64 63 64 65 70 79 85 89 90 93 79 77 85 88 91 76 72 65 68 87 86 91 95 98
79 79 70 76 78 87 86 79 69 68 65 60 56 62 80 91 86 93 90 82 82 83 88 88 77 71 64 66 78 79 91 95
82 80 73 77 83 83 88 83 73 68 69 63 60 56 58 75 96 97 97 91 88 88 86 97 78 70 77 76 71 74 82 82
83 81 79 76 82 82 82 84 78 68 71 65 59 58 56 57 68 68 77 97 96 95 94 95 95 73 73 76 82 74 74 79
78 81 79 78 75 79 80 80 79 72 65 69 63 58 56 54 62 65 79 90 90 99 92 94 92 88 74 79 82 76 69 70
63 71 78 78 75 75 78 81 77 72 68 65 65 58 56 56 54 62 73 83 90 92 94 96 93 95 87 79 79 85 66 73
62 61 70 74 75 71 65 70 74 76 72 67 63 58 48 52 53 50 58 68 88 85 94 90 96 96 88 78 72 80 74 58
58 62 61 63 68 67 63 66 72 81 71 66 64 62 57 49 46 47 49 54 63 70 76 94 93 95 95 99 80 67 72 63
56 58 59 64 67 70 66 65 66 68 71 67 66 66 63 55 50 42 44 48 51 62 68 83 88 85 93 89 99 82 69 58